Location: Bay Harbour
(38.2612°N, 75.2555°W)
Time: 17:17:13
(UTC+00:00)

COSMO-SKYMED 1 - Pass Details

Date: 29 October 2020
Orbit: 621 x 623 km, 97.9° (Epoch: 23 November)

Event Time Altitude Azimuth Distance (km) Brightness Sun altitude
Rises 23:31:26 0° 5° (N) 2,909 5.9 -17.6°
Reaches altitude 10° 23:33:42 10° 359° (N) 1,998 5.1 -18.1°
Maximum altitude 23:37:50 44° 287° (WNW) 858 3.7 -18.9°
Drops below altitude 10° 23:41:56 10° 215° (SW) 1,984 5.6 -19.7°
Sets 23:44:11 0° 209° (SSW) 2,885 6.4 -20.1°
